Flag for Germany Weather past 2 weeks in Biberach an der Riss, Baden-Württemberg, Germany

Now
61 °F

Thunderstorms. Broken clouds.


Feels Like: 61 °F
Forecast: 38 / 53 °F
Wind: 14 mph from Northwest

Location: Laupheim Airport

Current Time: Apr 27, 2015 at 6:20:20 PM

Latest Report: Apr 27, 2015 at 6:03 PM


Visibility: 4 mi

Pressure: 29.50 "Hg

Humidity: 68%

Dew point: 50 °F

Location of Biberach an der RissLocation

Historic Weather in Biberach an der Riss — Graph

°F

Biberach an der Riss temperature yesterday

Maximum temperature yesterday: 66 °F (at 4:20 PM)
Minimum temperature yesterday: 50 °F (at 5:20 AM)
Average temperature yesterday: 57 °F

Past Weeks' High & Low Weather Summary

 TemperatureHumidityPressure
High73 °F (Apr 15, 4:20 PM)100% (Apr 17, 6:20 PM)30.45 "Hg (Apr 17, 6:20 PM)
Low30 °F (Apr 19, 5:20 AM)17% (Apr 15, 5:00 PM)29.50 "Hg (Apr 27, 5:00 PM)
Average52 °F61%30.09 "Hg
* Reported Apr 12 5:20 PM — Apr 27 5:00 PM, Biberach an der Riss, Weather by CustomWeather, © 2015

Note: Actual official high and low records may vary slightly from our data, if they occured in-between our weather recording intervals... More about our weather records

Advertising

Biberach an der Riss weather history for previous 24 hours

 ConditionsComfort  
Time TempWeatherWind HumidityBarometerVisibility
5:00 PM
Mon, Apr 27
68 °FPartly sunny.7 mph53%29.50 "HgN/A
4:20 PM68 °FPartly sunny.8 mph53%29.53 "HgN/A
3:20 PM68 °FBroken clouds.9 mph49%29.53 "HgN/A
2:20 PM66 °FBroken clouds.8 mph56%29.56 "HgN/A
1:20 PM64 °FBroken clouds.7 mph60%29.56 "HgN/A
12:20 PM63 °FBroken clouds.7 mph59%29.59 "HgN/A
11:20 AM61 °FBroken clouds.6 mph72%29.59 "HgN/A
10:20 AM57 °FPartly sunny.3 mph77%29.59 "HgN/A
9:20 AM57 °FScattered clouds.1 mph77%29.62 "HgN/A
8:20 AM54 °FScattered clouds.1 mph88%29.59 "HgN/A
7:20 AM50 °FPassing clouds.1 mph94%29.59 "HgN/A
6:20 AM46 °FFog.3 mph93%29.59 "HgN/A
5:20 AM46 °FPassing clouds.3 mph93%29.59 "HgN/A
4:20 AM48 °FPassing clouds.5 mph87%29.62 "HgN/A
3:20 AM50 °FPassing clouds.3 mph88%29.62 "HgN/A
2:20 AM55 °FPassing clouds.3 mph72%29.65 "HgN/A
1:20 AM54 °FPassing clouds.6 mph82%29.65 "HgN/A
12:20 AM54 °FPartly cloudy.2 mph82%29.68 "HgN/A
11:20 PM
Sun, Apr 26
57 °FPartly cloudy.3 mph67%29.68 "HgN/A
10:20 PM57 °FPassing clouds.3 mph67%29.68 "HgN/A
9:20 PM57 °FPartly sunny.2 mph67%29.68 "HgN/A
8:20 PM63 °FBroken clouds.3 mph56%29.68 "HgN/A
7:20 PM64 °FPartly sunny.3 mph52%29.68 "HgN/A
6:20 PM66 °FOvercast.2 mph49%29.71 "HgN/A
Weather by CustomWeather, © 2015

See weather overviewHow to use our weather pages